| time (UTC) | temp C | wind direction | speed KPH | gust KPH | rain 1hr cm | rain 24hr cm | rain mn cm | humidity % | barometer mb |
| 20260510021108 | -17 | 0.0 | 0.0 | 0.00 | 0.00 | 0.00 | 1016.0 | ||
| 20260510020602 | -17 | 0.0 | 0.0 | 0.00 | 0.00 | 0.00 | 1015.8 | ||
| 20260510020058 | -17 | 0.0 | 0.0 | 0.00 | 0.00 | 0.00 | 1015.7 | ||
| 20260510015554 | -17 | 0.0 | 0.0 | 0.00 | 0.00 | 0.00 | 1015.7 | ||
| 20260510015050 | -17 | 0.0 | 0.0 | 0.00 | 0.00 | 0.00 | 1015.7 | ||
| 20260510014546 | -17 | 0.0 | 0.0 | 0.00 | 0.00 | 0.00 | 1015.5 | ||
| 20260510014043 | -17 | 0.0 | 0.0 | 0.00 | 0.00 | 0.00 | 1015.5 | ||
| 20260510013538 | -17 | 0.0 | 0.0 | 0.00 | 0.00 | 0.00 | 1015.3 | ||
| 20260510013034 | -17 | 0.0 | 0.0 | 0.00 | 0.00 | 0.00 | 1015.5 | ||
| 20260510012528 | -17 | 0.0 | 0.0 | 0.00 | 0.00 | 0.00 | 1015.3 | ||
| 20260510012025 | -17 | 0.0 | 0.0 | 0.00 | 0.00 | 0.00 | 1015.6 | ||
| 20260510011524 | -17 | 0.0 | 0.0 | 0.00 | 0.00 | 0.00 | 1015.3 | ||
| 20260510011020 | -17 | 0.0 | 0.0 | 0.00 | 0.00 | 0.00 | 1015.3 | ||
| 20260510010517 | -17 | 0.0 | 0.0 | 0.00 | 0.00 | 0.00 | 1015.4 | ||
| 20260510010014 | -17 | 0.0 | 0.0 | 0.00 | 0.00 | 0.00 | 1015.3 | ||
| 20260510005509 | -17 | 0.0 | 0.0 | 0.00 | 0.00 | 0.00 | 1015.0 | ||
| 20260510005008 | -17 | 0.0 | 0.0 | 0.00 | 0.00 | 0.00 | 1015.2 | ||
| 20260510004505 | -17 | 0.0 | 0.0 | 0.00 | 0.00 | 0.00 | 1015.3 | ||
| 20260510004003 | -17 | 0.0 | 0.0 | 0.00 | 0.00 | 0.00 | 1015.1 | ||
| 20260510003459 | -17 | 0.0 | 0.0 | 0.00 | 0.00 | 0.00 | 1014.9 | ||
| 20260510002955 | -17 | 0.0 | 0.0 | 0.00 | 0.00 | 0.00 | 1015.0 | ||
| 20260510002451 | -17 | 0.0 | 0.0 | 0.00 | 0.00 | 0.00 | 1014.9 | ||
| 20260510001947 | 27 | 140 | 8.0 | 8.0 | 0.00 | 0.00 | 0.00 | 75 | 1014.9 |
| 20260510001445 | 27 | 140 | 8.0 | 8.0 | 0.00 | 0.00 | 0.00 | 75 | 1014.9 |
| 20260510000943 | 27 | 140 | 8.0 | 8.0 | 0.00 | 0.00 | 0.00 | 75 | 1014.9 |
| 20260510000440 | 27 | 140 | 8.0 | 8.0 | 0.00 | 0.00 | 0.00 | 75 | 1014.7 |
| 20260509235935 | 27 | 140 | 8.0 | 8.0 | 0.00 | 0.00 | 0.00 | 75 | 1014.9 |
| 20260509235432 | 27 | 140 | 8.0 | 8.0 | 0.00 | 0.00 | 0.00 | 75 | 1014.6 |
| 20260509234928 | 27 | 140 | 8.0 | 8.0 | 0.00 | 0.00 | 0.00 | 75 | 1014.7 |
| 20260509234425 | 27 | 140 | 8.0 | 8.0 | 0.00 | 0.00 | 0.00 | 75 | 1014.6 |
| 20260509233923 | 27 | 140 | 8.0 | 8.0 | 0.00 | 0.00 | 0.00 | 75 | 1014.6 |
| 20260509233420 | 27 | 140 | 8.0 | 8.0 | 0.00 | 0.00 | 0.00 | 75 | 1014.6 |
| 20260509232916 | 27 | 140 | 8.0 | 8.0 | 0.00 | 0.00 | 0.00 | 75 | 1014.8 |
| 20260509232414 | 27 | 140 | 8.0 | 8.0 | 0.00 | 0.00 | 0.00 | 75 | 1014.7 |
| 20260509231909 | 26 | 246 | 11.3 | 12.9 | 0.00 | 0.00 | 0.00 | 75 | 1014.7 |
| 20260509231407 | 27 | 258 | 4.8 | 9.7 | 0.00 | 0.00 | 0.00 | 75 | 1014.8 |
| 20260509230905 | 27 | 221 | 14.5 | 14.5 | 0.00 | 0.00 | 0.00 | 75 | 1014.7 |
| 20260509230401 | 27 | 223 | 8.0 | 14.5 | 0.00 | 0.00 | 0.00 | 75 | 1014.7 |
| 20260509225857 | 27 | 251 | 14.5 | 17.7 | 0.00 | 0.00 | 0.00 | 75 | 1014.6 |
| 20260509225354 | 27 | 270 | 9.7 | 9.7 | 0.00 | 0.00 | 0.00 | 75 | 1014.8 |
| 20260509224849 | 27 | 220 | 11.3 | 16.1 | 0.00 | 0.00 | 0.00 | 75 | 1014.4 |
| 20260509224346 | 27 | 246 | 14.5 | 20.9 | 0.00 | 0.00 | 0.00 | 75 | 1014.4 |
| 20260509223843 | 28 | 260 | 11.3 | 14.5 | 0.00 | 0.00 | 0.00 | 75 | 1014.5 |
| 20260509223340 | -17 | 0.0 | 0.0 | 0.00 | 0.00 | 0.00 | 1014.5 | ||
| 20260509222837 | -17 | 0.0 | 0.0 | 0.00 | 0.00 | 0.00 | 1014.5 | ||
| 20260509222332 | 27 | 276 | 14.5 | 14.5 | 0.00 | 0.00 | 0.00 | 75 | 1014.2 |
| 20260509221827 | 27 | 276 | 14.5 | 14.5 | 0.00 | 0.00 | 0.00 | 75 | 1014.5 |
| 20260509221325 | 27 | 276 | 14.5 | 14.5 | 0.00 | 0.00 | 0.00 | 75 | 1014.1 |
| 20260509220825 | 27 | 276 | 14.5 | 14.5 | 0.00 | 0.00 | 0.00 | 75 | 1014.4 |
| 20260509220321 | 27 | 276 | 14.5 | 14.5 | 0.00 | 0.00 | 0.00 | 75 | 1014.4 |
| 20260509215817 | 27 | 276 | 14.5 | 14.5 | 0.00 | 0.00 | 0.00 | 75 | 1014.3 |
| 20260509215314 | 27 | 276 | 14.5 | 14.5 | 0.00 | 0.00 | 0.00 | 75 | 1014.3 |
| 20260509214811 | 27 | 276 | 14.5 | 14.5 | 0.00 | 0.00 | 0.00 | 75 | 1014.5 |
| 20260509214308 | 27 | 276 | 14.5 | 14.5 | 0.00 | 0.00 | 0.00 | 75 | 1014.4 |
| 20260509213805 | 27 | 276 | 14.5 | 14.5 | 0.00 | 0.00 | 0.00 | 75 | 1014.3 |
| 20260509213301 | 27 | 276 | 14.5 | 14.5 | 0.00 | 0.00 | 0.00 | 75 | 1014.2 |
| 20260509212758 | 27 | 276 | 14.5 | 14.5 | 0.00 | 0.00 | 0.00 | 75 | 1014.5 |
| 20260509212255 | 26 | 244 | 14.5 | 14.5 | 0.00 | 0.00 | 0.00 | 75 | 1014.4 |
| 20260509211751 | 26 | 251 | 14.5 | 16.1 | 0.00 | 0.00 | 0.00 | 75 | 1014.5 |
| 20260509211248 | 27 | 220 | 8.0 | 12.9 | 0.00 | 0.00 | 0.00 | 75 | 1014.4 |
| 20260509210744 | 27 | 219 | 8.0 | 11.3 | 0.00 | 0.00 | 0.00 | 75 | 1014.5 |
| 20260509210242 | 27 | 251 | 11.3 | 17.7 | 0.00 | 0.00 | 0.00 | 75 | 1014.5 |
| 20260509205741 | 28 | 239 | 6.4 | 8.0 | 0.00 | 0.00 | 0.00 | 76 | 1014.6 |
| 20260509205236 | 28 | 249 | 8.0 | 14.5 | 0.00 | 0.00 | 0.00 | 75 | 1014.6 |
| 20260509204732 | 28 | 278 | 1.6 | 3.2 | 0.00 | 0.00 | 0.00 | 75 | 1014.7 |
| 20260509204229 | 26 | 265 | 3.2 | 6.4 | 0.00 | 0.00 | 0.00 | 75 | 1014.9 |
| 20260509203725 | 26 | 265 | 3.2 | 6.4 | 0.00 | 0.00 | 0.00 | 75 | 1014.5 |
| 20260509203223 | 27 | 300 | 8.0 | 9.7 | 0.00 | 0.00 | 0.00 | 75 | 1014.9 |
| 20260509202719 | 27 | 287 | 11.3 | 11.3 | 0.00 | 0.00 | 0.00 | 75 | 1014.9 |
| 20260509202214 | 27 | 283 | 9.7 | 12.9 | 0.00 | 0.00 | 0.00 | 75 | 1014.7 |
| 20260509201709 | 27 | 175 | 3.2 | 6.4 | 0.00 | 0.00 | 0.00 | 75 | 1014.9 |
| 20260509201206 | 27 | 199 | 6.4 | 6.4 | 0.00 | 0.00 | 0.00 | 75 | 1015.0 |
| 20260509200703 | 27 | 199 | 6.4 | 6.4 | 0.00 | 0.00 | 0.00 | 75 | 1015.2 |
| 20260509200157 | 27 | 289 | 4.8 | 6.4 | 0.00 | 0.00 | 0.00 | 75 | 1015.1 |
| 20260509195654 | 27 | 208 | 3.2 | 6.4 | 0.00 | 0.00 | 0.00 | 75 | 1015.1 |
| 20260509195149 | 27 | 206 | 3.2 | 6.4 | 0.00 | 0.00 | 0.00 | 75 | 1015.4 |
| 20260509194643 | 27 | 201 | 4.8 | 6.4 | 0.00 | 0.00 | 0.00 | 75 | 1015.3 |
| 20260509194140 | 26 | 331 | 4.8 | 6.4 | 0.00 | 0.00 | 0.00 | 75 | 1015.2 |
| 20260509193636 | 26 | 304 | 4.8 | 4.8 | 0.00 | 0.00 | 0.00 | 75 | 1015.4 |
| 20260509193132 | 26 | 231 | 6.4 | 9.7 | 0.00 | 0.00 | 0.00 | 75 | 1015.4 |
| 20260509192629 | 26 | 243 | 12.9 | 16.1 | 0.00 | 0.00 | 0.00 | 75 | 1015.6 |
| 20260509192123 | 26 | 238 | 16.1 | 17.7 | 0.00 | 0.00 | 0.00 | 75 | 1015.4 |
| 20260509191618 | 26 | 270 | 4.8 | 14.5 | 0.00 | 0.00 | 0.00 | 75 | 1015.5 |
| 20260509191115 | 26 | 305 | 8.0 | 22.5 | 0.00 | 0.00 | 0.00 | 75 | 1015.5 |
| 20260509190611 | 26 | 260 | 19.3 | 19.3 | 0.00 | 0.00 | 0.00 | 75 | 1015.8 |
| 20260509190109 | 26 | 197 | 3.2 | 12.9 | 0.00 | 0.00 | 0.00 | 75 | 1015.6 |
| 20260509185606 | 26 | 278 | 4.8 | 4.8 | 0.00 | 0.00 | 0.00 | 75 | 1015.6 |
| 20260509185102 | 26 | 334 | 1.6 | 9.7 | 0.00 | 0.00 | 0.00 | 75 | 1015.6 |
| 20260509184601 | 26 | 135 | 4.8 | 4.8 | 0.00 | 0.00 | 0.00 | 75 | 1015.8 |
| 20260509184057 | 26 | 79 | 4.8 | 6.4 | 0.00 | 0.00 | 0.00 | 75 | 1015.6 |
| 20260509183552 | 26 | 270 | 11.3 | 14.5 | 0.00 | 0.00 | 0.00 | 75 | 1015.6 |
| 20260509183048 | 26 | 270 | 11.3 | 14.5 | 0.00 | 0.00 | 0.00 | 75 | 1015.5 |
| 20260509182545 | 26 | 270 | 11.3 | 14.5 | 0.00 | 0.00 | 0.00 | 75 | 1015.3 |
| 20260509182042 | 26 | 270 | 11.3 | 14.5 | 0.00 | 0.00 | 0.00 | 75 | 1015.6 |
| 20260509181540 | 26 | 270 | 11.3 | 14.5 | 0.00 | 0.00 | 0.00 | 75 | 1015.5 |
| 20260509181037 | 26 | 270 | 11.3 | 14.5 | 0.00 | 0.00 | 0.00 | 75 | 1015.5 |
| 20260509180532 | 25 | 288 | 6.4 | 11.3 | 0.00 | 0.00 | 0.00 | 75 | 1015.6 |
| 20260509180030 | 25 | 219 | 12.9 | 17.7 | 0.00 | 0.00 | 0.00 | 75 | 1015.4 |
| 20260509175525 | 25 | 219 | 12.9 | 17.7 | 0.00 | 0.00 | 0.00 | 75 | 1015.5 |
| 20260509175023 | 25 | 219 | 12.9 | 17.7 | 0.00 | 0.00 | 0.00 | 75 | 1015.5 |
| 20260509174519 | 25 | 219 | 12.9 | 17.7 | 0.00 | 0.00 | 0.00 | 75 | 1015.5 |
| 20260509174014 | 26 | 259 | 0.0 | 12.9 | 0.00 | 0.00 | 0.00 | 75 | 1015.5 |
| 20260509173509 | 25 | 251 | 12.9 | 14.5 | 0.00 | 0.00 | 0.00 | 75 | 1015.8 |
| 20260509173005 | 25 | 251 | 12.9 | 14.5 | 0.00 | 0.00 | 0.00 | 75 | 1015.6 |
| 20260509172503 | 25 | 251 | 12.9 | 14.5 | 0.00 | 0.00 | 0.00 | 75 | 1015.7 |
| 20260509171958 | 25 | 250 | 8.0 | 12.9 | 0.00 | 0.00 | 0.00 | 75 | 1016.0 |
| 20260509171454 | 25 | 236 | 14.5 | 17.7 | 0.00 | 0.00 | 0.00 | 75 | 1015.7 |
| 20260509170951 | 25 | 300 | 0.0 | 1.6 | 0.00 | 0.00 | 0.00 | 75 | 1015.7 |
| 20260509170446 | 24 | 262 | 8.0 | 14.5 | 0.00 | 0.00 | 0.00 | 74 | 1015.8 |
| 20260509165942 | 24 | 262 | 14.5 | 17.7 | 0.00 | 0.00 | 0.00 | 75 | 1015.7 |
| 20260509165441 | 24 | 249 | 12.9 | 14.5 | 0.00 | 0.00 | 0.00 | 74 | 1016.0 |
| 20260509164937 | 24 | 254 | 14.5 | 16.1 | 0.00 | 0.00 | 0.00 | 74 | 1015.7 |
| 20260509164433 | 24 | 268 | 11.3 | 17.7 | 0.00 | 0.00 | 0.00 | 74 | 1016.2 |
| 20260509163929 | 24 | 192 | 3.2 | 14.5 | 0.00 | 0.00 | 0.00 | 75 | 1016.0 |
| 20260509163427 | 23 | 268 | 11.3 | 19.3 | 0.00 | 0.00 | 0.00 | 74 | 1015.8 |
| 20260509162926 | 24 | 245 | 6.4 | 8.0 | 0.00 | 0.00 | 0.00 | 74 | 1015.8 |
| 20260509162425 | 24 | 180 | 1.6 | 8.0 | 0.00 | 0.00 | 0.00 | 74 | 1016.1 |
| 20260509161921 | 23 | 249 | 11.3 | 14.5 | 0.00 | 0.00 | 0.00 | 74 | 1016.1 |
| 20260509161417 | 23 | 242 | 8.0 | 9.7 | 0.00 | 0.00 | 0.00 | 74 | 1016.1 |
| 20260509160912 | 23 | 285 | 11.3 | 11.3 | 0.00 | 0.00 | 0.00 | 74 | 1015.8 |
| 20260509160408 | 23 | 248 | 9.7 | 14.5 | 0.00 | 0.00 | 0.00 | 74 | 1015.7 |
| 20260509155903 | 23 | 279 | 12.9 | 12.9 | 0.00 | 0.00 | 0.00 | 74 | 1016.1 |
| 20260509155400 | 23 | 248 | 11.3 | 12.9 | 0.00 | 0.00 | 0.00 | 74 | 1015.8 |
| 20260509154857 | 22 | 259 | 8.0 | 14.5 | 0.00 | 0.00 | 0.00 | 74 | 1016.0 |
| 20260509154353 | 22 | 242 | 14.5 | 16.1 | 0.00 | 0.00 | 0.00 | 74 | 1015.8 |
| 20260509153850 | 22 | 231 | 11.3 | 12.9 | 0.00 | 0.00 | 0.00 | 74 | 1016.0 |
| 20260509153347 | 22 | 291 | 8.0 | 9.7 | 0.00 | 0.00 | 0.00 | 74 | 1015.8 |
| 20260509152844 | 22 | 318 | 4.8 | 4.8 | 0.00 | 0.00 | 0.00 | 74 | 1015.8 |
| 20260509152340 | 22 | 280 | 16.1 | 17.7 | 0.00 | 0.00 | 0.00 | 74 | 1015.8 |
| 20260509151838 | 21 | 295 | 8.0 | 11.3 | 0.00 | 0.00 | 0.00 | 74 | 1016.0 |
| 20260509151333 | 21 | 254 | 8.0 | 9.7 | 0.00 | 0.00 | 0.00 | 74 | 1015.7 |
| 20260509150832 | 21 | 264 | 8.0 | 8.0 | 0.00 | 0.00 | 0.00 | 74 | 1015.8 |
| 20260509150329 | 21 | 255 | 8.0 | 11.3 | 0.00 | 0.00 | 0.00 | 74 | 1015.6 |
| 20260509145827 | 21 | 298 | 4.8 | 8.0 | 0.00 | 0.00 | 0.00 | 74 | 1016.0 |
| 20260509145321 | 21 | 306 | 4.8 | 9.7 | 0.00 | 0.00 | 0.00 | 74 | 1016.1 |
| 20260509144818 | 21 | 303 | 4.8 | 8.0 | 0.00 | 0.00 | 0.00 | 74 | 1016.0 |
| 20260509144315 | 20 | 281 | 4.8 | 8.0 | 0.00 | 0.00 | 0.00 | 74 | 1015.8 |
| 20260509143812 | 20 | 282 | 4.8 | 6.4 | 0.00 | 0.00 | 0.00 | 74 | 1016.0 |
| 20260509143309 | 20 | 265 | 6.4 | 8.0 | 0.00 | 0.00 | 0.00 | 74 | 1015.8 |
| 20260509142805 | 20 | 267 | 9.7 | 12.9 | 0.00 | 0.00 | 0.00 | 73 | 1015.5 |
| 20260509142302 | 20 | 300 | 4.8 | 8.0 | 0.00 | 0.00 | 0.00 | 73 | 1015.8 |
| 20260509141757 | 19 | 270 | 12.9 | 14.5 | 0.00 | 0.00 | 0.00 | 73 | 1015.7 |
| 20260509141254 | 19 | 274 | 8.0 | 12.9 | 0.00 | 0.00 | 0.00 | 73 | 1015.7 |
| 20260509140751 | 19 | 261 | 6.4 | 12.9 | 0.00 | 0.00 | 0.00 | 73 | 1015.4 |
| 20260509140248 | 18 | 256 | 8.0 | 14.5 | 0.00 | 0.00 | 0.00 | 73 | 1015.5 |
| 20260509135746 | 18 | 281 | 9.7 | 12.9 | 0.00 | 0.00 | 0.00 | 73 | 1015.5 |
| 20260509135243 | 18 | 275 | 3.2 | 11.3 | 0.00 | 0.00 | 0.00 | 73 | 1015.4 |
| 20260509134740 | 17 | 283 | 6.4 | 6.4 | 0.00 | 0.00 | 0.00 | 73 | 1015.2 |
| 20260509134238 | 17 | 250 | 12.9 | 14.5 | 0.00 | 0.00 | 0.00 | 73 | 1015.5 |
| 20260509133735 | 17 | 250 | 12.9 | 14.5 | 0.00 | 0.00 | 0.00 | 73 | 1015.4 |
| 20260509133231 | 17 | 276 | 9.7 | 12.9 | 0.00 | 0.00 | 0.00 | 73 | 1015.5 |
| 20260509132730 | 17 | 276 | 9.7 | 12.9 | 0.00 | 0.00 | 0.00 | 73 | 1015.4 |
| 20260509132228 | 17 | 266 | 11.3 | 14.5 | 0.00 | 0.00 | 0.00 | 73 | 1015.4 |
| 20260509131725 | 17 | 325 | 11.3 | 14.5 | 0.00 | 0.00 | 0.00 | 73 | 1015.2 |
| 20260509131221 | 17 | 272 | 12.9 | 12.9 | 0.00 | 0.00 | 0.00 | 73 | 1015.2 |
| 20260509130717 | 16 | 259 | 6.4 | 6.4 | 0.00 | 0.00 | 0.00 | 73 | 1015.2 |
| 20260509130213 | 16 | 259 | 6.4 | 6.4 | 0.00 | 0.00 | 0.00 | 73 | 1015.0 |
| 20260509125710 | 16 | 259 | 6.4 | 6.4 | 0.00 | 0.00 | 0.00 | 73 | 1015.0 |
| 20260509125207 | 15 | 266 | 6.4 | 8.0 | 0.00 | 0.00 | 0.00 | 73 | 1015.3 |
| 20260509124703 | 15 | 270 | 8.0 | 11.3 | 0.00 | 0.00 | 0.00 | 73 | 1015.0 |
| 20260509124200 | 15 | 270 | 8.0 | 11.3 | 0.00 | 0.00 | 0.00 | 73 | 1015.0 |
| 20260509123659 | -17 | 0.0 | 0.0 | 0.00 | 0.00 | 0.00 | 1014.9 | ||
| 20260509123155 | -17 | 0.0 | 0.0 | 0.00 | 0.00 | 0.00 | 1015.1 | ||
| 20260509122650 | -17 | 0.0 | 0.0 | 0.00 | 0.00 | 0.00 | 1015.0 | ||
| 20260509122148 | -17 | 0.0 | 0.0 | 0.00 | 0.00 | 0.00 | 1014.9 | ||
| 20260509121644 | -17 | 0.0 | 0.0 | 0.00 | 0.00 | 0.00 | 1014.9 | ||
| 20260509121142 | -17 | 0.0 | 0.0 | 0.00 | 0.00 | 0.00 | 1015.0 | ||
| 20260509120640 | -17 | 0.0 | 0.0 | 0.00 | 0.00 | 0.00 | 1015.0 | ||
| 20260509120138 | -17 | 0.0 | 0.0 | 0.00 | 0.00 | 0.00 | 1014.9 | ||
| 20260509115635 | -17 | 0.0 | 0.0 | 0.00 | 0.00 | 0.00 | 1014.8 | ||
| 20260509115133 | -17 | 0.0 | 0.0 | 0.00 | 0.00 | 0.00 | 1014.5 | ||
| 20260509114630 | -17 | 0.0 | 0.0 | 0.00 | 0.00 | 0.00 | 1014.5 | ||
| 20260509114129 | -17 | 0.0 | 0.0 | 0.00 | 0.00 | 0.00 | 1014.5 | ||
| 20260509113627 | -17 | 0.0 | 0.0 | 0.00 | 0.00 | 0.00 | 1014.1 | ||
| 20260509113124 | -17 | 0.0 | 0.0 | 0.00 | 0.00 | 0.00 | 1014.3 | ||
| 20260509112620 | -17 | 0.0 | 0.0 | 0.00 | 0.00 | 0.00 | 1014.2 | ||
| 20260509112118 | -17 | 0.0 | 0.0 | 0.00 | 0.00 | 0.00 | 1014.3 | ||
| 20260509111615 | -17 | 0.0 | 0.0 | 0.00 | 0.00 | 0.00 | 1014.4 | ||
| 20260509111111 | -17 | 0.0 | 0.0 | 0.00 | 0.00 | 0.00 | 1014.1 | ||
| 20260509110609 | -17 | 0.0 | 0.0 | 0.00 | 0.00 | 0.00 | 1014.2 | ||
| 20260509110106 | -17 | 0.0 | 0.0 | 0.00 | 0.00 | 0.00 | 1014.1 | ||
| 20260509105604 | -17 | 0.0 | 0.0 | 0.00 | 0.00 | 0.00 | 1014.1 | ||
| 20260509105101 | -17 | 0.0 | 0.0 | 0.00 | 0.00 | 0.00 | 1013.9 | ||
| 20260509104558 | -17 | 0.0 | 0.0 | 0.00 | 0.00 | 0.00 | 1013.9 | ||
| 20260509104055 | -17 | 0.0 | 0.0 | 0.00 | 0.00 | 0.00 | 1014.2 | ||
| 20260509103553 | -17 | 0.0 | 0.0 | 0.00 | 0.00 | 0.00 | 1013.9 | ||
| 20260509103051 | -17 | 0.0 | 0.0 | 0.00 | 0.00 | 0.00 | 1013.9 | ||
| 20260509102548 | -17 | 0.0 | 0.0 | 0.00 | 0.00 | 0.00 | 1013.9 | ||
| 20260509102045 | -17 | 0.0 | 0.0 | 0.00 | 0.00 | 0.00 | 1013.9 | ||
| 20260509101540 | -17 | 0.0 | 0.0 | 0.00 | 0.00 | 0.00 | 1014.0 | ||
| 20260509101037 | -17 | 0.0 | 0.0 | 0.00 | 0.00 | 0.00 | 1013.9 | ||
| 20260509100535 | -17 | 0.0 | 0.0 | 0.00 | 0.00 | 0.00 | 1014.2 | ||
| 20260509100033 | -17 | 0.0 | 0.0 | 0.00 | 0.00 | 0.00 | 1013.9 | ||
| 20260509095529 | -17 | 0.0 | 0.0 | 0.00 | 0.00 | 0.00 | 1014.1 | ||
| 20260509095026 | -17 | 0.0 | 0.0 | 0.00 | 0.00 | 0.00 | 1014.2 | ||
| 20260509094522 | -17 | 0.0 | 0.0 | 0.00 | 0.00 | 0.00 | 1014.2 | ||
| 20260509094020 | -17 | 0.0 | 0.0 | 0.00 | 0.00 | 0.00 | 1014.1 | ||
| 20260509093518 | -17 | 0.0 | 0.0 | 0.00 | 0.00 | 0.00 | 1014.1 | ||
| 20260509093015 | -17 | 0.0 | 0.0 | 0.00 | 0.00 | 0.00 | 1014.2 | ||
| 20260509092513 | -17 | 0.0 | 0.0 | 0.00 | 0.00 | 0.00 | 1014.1 | ||
| 20260509092012 | -17 | 0.0 | 0.0 | 0.00 | 0.00 | 0.00 | 1014.2 | ||
| 20260509091508 | -17 | 0.0 | 0.0 | 0.00 | 0.00 | 0.00 | 1014.3 | ||
| 20260509091005 | -17 | 0.0 | 0.0 | 0.00 | 0.00 | 0.00 | 1014.4 | ||
| 20260509090502 | -17 | 0.0 | 0.0 | 0.00 | 0.00 | 0.00 | 1014.5 | ||
| 20260509090000 | -17 | 0.0 | 0.0 | 0.00 | 0.00 | 0.00 | 1014.2 | ||
| 20260509085457 | -17 | 0.0 | 0.0 | 0.00 | 0.00 | 0.00 | 1014.2 | ||
| 20260509084953 | -17 | 0.0 | 0.0 | 0.00 | 0.00 | 0.00 | 1014.3 | ||
| 20260509084449 | -17 | 0.0 | 0.0 | 0.00 | 0.00 | 0.00 | 1014.0 | ||
| 20260509083946 | -17 | 0.0 | 0.0 | 0.00 | 0.00 | 0.00 | 1014.3 | ||
| 20260509083444 | -17 | 0.0 | 0.0 | 0.00 | 0.00 | 0.00 | 1014.3 | ||
| 20260509082941 | -17 | 0.0 | 0.0 | 0.00 | 0.00 | 0.00 | 1014.1 | ||
| 20260509082438 | -17 | 0.0 | 0.0 | 0.00 | 0.00 | 0.00 | 1014.2 | ||
| 20260509081935 | -17 | 0.0 | 0.0 | 0.00 | 0.00 | 0.00 | 1013.9 | ||
| 20260509081432 | -17 | 0.0 | 0.0 | 0.00 | 0.00 | 0.00 | 1013.8 | ||
| 20260509080930 | -17 | 0.0 | 0.0 | 0.00 | 0.00 | 0.00 | 1013.9 | ||
| 20260509080427 | -17 | 0.0 | 0.0 | 0.00 | 0.00 | 0.00 | 1013.9 | ||
| 20260509075925 | -17 | 0.0 | 0.0 | 0.00 | 0.00 | 0.00 | 1013.9 | ||
| 20260509075422 | -17 | 0.0 | 0.0 | 0.00 | 0.00 | 0.00 | 1013.9 | ||
| 20260509074920 | -17 | 0.0 | 0.0 | 0.00 | 0.00 | 0.00 | 1013.8 | ||
| 20260509074417 | -17 | 0.0 | 0.0 | 0.00 | 0.00 | 0.00 | 1013.9 | ||
| 20260509073913 | -17 | 0.0 | 0.0 | 0.00 | 0.00 | 0.00 | 1013.9 | ||
| 20260509073410 | -17 | 0.0 | 0.0 | 0.00 | 0.00 | 0.00 | 1013.9 | ||
| 20260509072906 | -17 | 0.0 | 0.0 | 0.00 | 0.00 | 0.00 | 1014.0 | ||
| 20260509072403 | -17 | 0.0 | 0.0 | 0.00 | 0.00 | 0.00 | 1014.1 | ||
| 20260509071859 | -17 | 0.0 | 0.0 | 0.00 | 0.00 | 0.00 | 1013.9 | ||
| 20260509071357 | -17 | 0.0 | 0.0 | 0.00 | 0.00 | 0.00 | 1013.9 | ||
| 20260509070854 | -17 | 0.0 | 0.0 | 0.00 | 0.00 | 0.00 | 1013.9 | ||
| 20260509070351 | -17 | 0.0 | 0.0 | 0.00 | 0.00 | 0.00 | 1014.0 | ||
| 20260509065846 | -17 | 0.0 | 0.0 | 0.00 | 0.00 | 0.00 | 1014.0 | ||
| 20260509065343 | -17 | 0.0 | 0.0 | 0.00 | 0.00 | 0.00 | 1013.8 | ||
| 20260509064839 | -17 | 0.0 | 0.0 | 0.00 | 0.00 | 0.00 | 1013.9 | ||
| 20260509064337 | -17 | 0.0 | 0.0 | 0.00 | 0.00 | 0.00 | 1013.7 | ||
| 20260509063834 | -17 | 0.0 | 0.0 | 0.00 | 0.00 | 0.00 | 1013.9 | ||
| 20260509063330 | -17 | 0.0 | 0.0 | 0.00 | 0.00 | 0.00 | 1013.8 | ||
| 20260509062828 | -17 | 0.0 | 0.0 | 0.00 | 0.00 | 0.00 | 1013.6 | ||
| 20260509062324 | -17 | 0.0 | 0.0 | 0.00 | 0.00 | 0.00 | 1013.6 | ||
| 20260509061822 | -17 | 0.0 | 0.0 | 0.00 | 0.00 | 0.00 | 1013.8 | ||
| 20260509061320 | -17 | 0.0 | 0.0 | 0.00 | 0.00 | 0.00 | 1013.8 | ||
| 20260509060816 | -17 | 0.0 | 0.0 | 0.00 | 0.00 | 0.00 | 1013.6 | ||
| 20260509060314 | -17 | 0.0 | 0.0 | 0.00 | 0.00 | 0.00 | 1013.7 | ||
| 20260509055809 | -17 | 0.0 | 0.0 | 0.00 | 0.00 | 0.00 | 1013.7 | ||
| 20260509055306 | -17 | 0.0 | 0.0 | 0.00 | 0.00 | 0.00 | 1013.9 | ||
| 20260509054801 | 17 | 315 | 9.7 | 9.7 | 0.00 | 0.00 | 0.00 | 73 | 1013.9 |
| 20260509054258 | 17 | 315 | 9.7 | 9.7 | 0.00 | 0.00 | 0.00 | 73 | 1014.1 |
| 20260509053757 | 17 | 315 | 9.7 | 9.7 | 0.00 | 0.00 | 0.00 | 73 | 1014.2 |
| 20260509053253 | 17 | 315 | 9.7 | 9.7 | 0.00 | 0.00 | 0.00 | 73 | 1014.2 |
| 20260509052751 | 17 | 315 | 9.7 | 9.7 | 0.00 | 0.00 | 0.00 | 73 | 1014.3 |
| 20260509052249 | 17 | 315 | 9.7 | 9.7 | 0.00 | 0.00 | 0.00 | 73 | 1014.3 |
| 20260509051746 | 17 | 315 | 9.7 | 9.7 | 0.00 | 0.00 | 0.00 | 73 | 1014.2 |
| 20260509051244 | 17 | 315 | 9.7 | 9.7 | 0.00 | 0.00 | 0.00 | 73 | 1014.4 |
| 20260509050740 | 17 | 315 | 9.7 | 9.7 | 0.00 | 0.00 | 0.00 | 73 | 1014.3 |
| 20260509050237 | 17 | 315 | 9.7 | 9.7 | 0.00 | 0.00 | 0.00 | 73 | 1014.3 |
| 20260509045735 | 17 | 315 | 9.7 | 9.7 | 0.00 | 0.00 | 0.00 | 73 | 1014.2 |
| 20260509045231 | 17 | 315 | 9.7 | 9.7 | 0.00 | 0.00 | 0.00 | 73 | 1014.2 |
| 20260509044729 | 17 | 231 | 14.5 | 16.1 | 0.00 | 0.00 | 0.00 | 73 | 1014.2 |
| 20260509044226 | 17 | 231 | 14.5 | 16.1 | 0.00 | 0.00 | 0.00 | 73 | 1014.3 |
| 20260509043722 | 17 | 231 | 14.5 | 16.1 | 0.00 | 0.00 | 0.00 | 73 | 1013.9 |
| 20260509043218 | 17 | 254 | 9.7 | 14.5 | 0.00 | 0.00 | 0.00 | 73 | 1013.8 |
| 20260509042715 | 17 | 199 | 6.4 | 17.7 | 0.00 | 0.00 | 0.00 | 73 | 1014.0 |
| 20260509042211 | 18 | 180 | 4.8 | 16.1 | 0.00 | 0.00 | 0.00 | 73 | 1013.8 |
| 20260509041708 | 18 | 262 | 4.8 | 24.1 | 0.00 | 0.00 | 0.00 | 73 | 1013.7 |
| 20260509041205 | 18 | 209 | 9.7 | 12.9 | 0.00 | 0.00 | 0.00 | 73 | 1013.5 |
| 20260509040704 | 18 | 195 | 12.9 | 16.1 | 0.00 | 0.00 | 0.00 | 73 | 1013.5 |
| 20260509040200 | 18 | 234 | 1.6 | 9.7 | 0.00 | 0.00 | 0.00 | 73 | 1013.7 |
| 20260509035657 | 18 | 239 | 9.7 | 20.9 | 0.00 | 0.00 | 0.00 | 73 | 1013.3 |
| 20260509035153 | 18 | 227 | 12.9 | 17.7 | 0.00 | 0.00 | 0.00 | 73 | 1013.2 |
| 20260509034651 | 18 | 195 | 9.7 | 22.5 | 0.00 | 0.00 | 0.00 | 73 | 1013.0 |
| 20260509034148 | 18 | 197 | 11.3 | 11.3 | 0.00 | 0.00 | 0.00 | 73 | 1013.1 |
| 20260509033645 | 18 | 206 | 9.7 | 14.5 | 0.00 | 0.00 | 0.00 | 73 | 1012.6 |
| 20260509033142 | 18 | 208 | 8.0 | 16.1 | 0.00 | 0.00 | 0.00 | 73 | 1012.6 |
| 20260509032639 | 18 | 203 | 14.5 | 19.3 | 0.00 | 0.00 | 0.00 | 73 | 1012.8 |
| 20260509032136 | 18 | 202 | 14.5 | 16.1 | 0.00 | 0.00 | 0.00 | 73 | 1013.0 |
| 20260509031634 | 18 | 196 | 14.5 | 24.1 | 0.00 | 0.00 | 0.00 | 73 | 1012.8 |
| 20260509031131 | 18 | 208 | 14.5 | 24.1 | 0.00 | 0.00 | 0.00 | 73 | 1012.8 |
| 20260509030629 | 18 | 194 | 6.4 | 22.5 | 0.00 | 0.00 | 0.00 | 73 | 1013.2 |
| 20260509030126 | 18 | 199 | 19.3 | 20.9 | 0.00 | 0.00 | 0.00 | 73 | 1013.3 |
| 20260509025622 | 19 | 179 | 8.0 | 19.3 | 0.00 | 0.00 | 0.00 | 73 | 1013.3 |
| 20260509025118 | 19 | 203 | 9.7 | 22.5 | 0.00 | 0.00 | 0.00 | 73 | 1013.5 |
| 20260509024613 | 19 | 195 | 12.9 | 22.5 | 0.00 | 0.00 | 0.00 | 73 | 1013.0 |
| 20260509024110 | 19 | 146 | 16.1 | 24.1 | 0.00 | 0.00 | 0.00 | 73 | 1013.2 |
| 20260509023608 | 19 | 208 | 17.7 | 22.5 | 0.00 | 0.00 | 0.00 | 73 | 1013.2 |
| 20260509023104 | 19 | 209 | 11.3 | 24.1 | 0.00 | 0.00 | 0.00 | 73 | 1013.1 |
| 20260509022600 | 18 | 195 | 9.7 | 19.3 | 0.00 | 0.00 | 0.00 | 73 | 1013.0 |
| 20260509022059 | 19 | 211 | 14.5 | 19.3 | 0.00 | 0.00 | 0.00 | 73 | 1013.3 |
| 20260509021555 | 19 | 202 | 9.7 | 20.9 | 0.00 | 0.00 | 0.00 | 73 | 1013.2 |